User: anonymous   Login
Location: Marcé
(47.5801°N, 0.3280°W)
Time: 07:29:19
(UTC+01:00)
Language:

COSMOS 2251 DEB - Orbit

View from above orbital plane
View from above orbital plane
View from above satellite
View from above satellite

Ground track
Ground track

The orbit data is extracted from the following two-line orbital elements,

1 35711U 93036AQG 22329.95323183  .00000626  00000-0  13334-3 0  9991
2 35711  74.0468 186.3735 0092845 213.6366 145.8886 14.58620840715197
Epoch (UTC): 25 November 2022 22:52:39
Eccentricity: 0.0092845
inclination: 74.0468°
perigee height: 632 km
apogee height: 763 km
right ascension of ascending node: 186.3735°
argument of perigee: 213.6366°
revolutions per day: 14.58620840
mean anomaly at epoch: 145.8886°
orbit number at epoch: 71519

The dashed part of the orbit path shows where the satellite is in the earth's shadow,  

DLR